Flag for Turkey

Past Weather in Konya, Turkey — Yesterday and Last 2 Weeks

Now
63 °F

Clear.


Feels Like: 63 °F
Forecast: 83 / 56 °F
Wind: No wind

Location: Konya Airport
Current Time: Sep 24, 2020 at 2:17:37 am
Latest Report: Sep 24, 2020 at 12:50 am
Visibility: 10 mi
Pressure30.01 "Hg(26.55 "Hg at 1041m altitude)
Humidity: 49%
Dew Point: 43 °F
Location of KonyaLocation

Past Weather in Konya — Graph

°F

Konya Temperature Yesterday

Maximum temperature yesterday: 82 °F (at 3:50 pm)
Minimum temperature yesterday: 57 °F (at 2:50 am)
Average temperature yesterday: 69 °F

High & Low Weather Summary for the Past Weeks

 TemperatureHumidityPressure
High88 °F (Sep 11, 2:50 pm)94% (Sep 13, 12:50 am)30.18 "Hg (Sep 13, 12:50 am)
Low55 °F (Sep 22, 6:50 am)18% (Sep 17, 2:50 pm)29.89 "Hg (Sep 11, 3:50 pm)
Average72 °F46%30.04 "Hg
* Reported Sep 9 12:50 am — Sep 24 12:50 am, Konya. Weather by CustomWeather, © 2020

Note: Actual official high and low records may vary slightly from our data, if they occured in-between our weather recording intervals... More about our weather records

Konya Weather History for the Previous 24 Hours

Scroll right to see more
 ConditionsComfort  
Time TempWeatherWind HumidityBarometerVisibility
12:50 am
Thu, Sep 24
63 °FClear.No wind49%30.01 "Hg10 mi
11:50 pm
Wed, Sep 23
63 °FClear.5 mph49%30.04 "Hg10 mi
10:50 pm66 °FClear.2 mph43%30.01 "Hg10 mi
9:50 pm66 °FClear.2 mph43%30.04 "Hg10 mi
8:50 pm68 °FClear.No wind40%30.01 "Hg10 mi
7:50 pm70 °FClear.No wind38%30.01 "Hg10 mi
6:50 pm75 °FPassing clouds.No wind31%30.01 "HgN/A
5:50 pm79 °FPassing clouds.No wind28%30.01 "HgN/A
4:50 pm81 °FPassing clouds.8 mph26%30.01 "HgN/A
3:50 pm82 °FScattered clouds.3 mph25%30.01 "HgN/A
2:50 pm81 °FScattered clouds.6 mph26%30.01 "HgN/A
1:50 pm81 °FScattered clouds.5 mph28%30.04 "HgN/A
12:50 pm79 °FPassing clouds.5 mph32%30.07 "HgN/A
11:50 am77 °FPassing clouds.6 mph36%30.07 "HgN/A
10:50 am75 °FSunny.2 mph39%30.09 "Hg10 mi
9:50 am72 °FSunny.2 mph44%30.09 "Hg10 mi
8:50 am68 °FSunny.No wind46%30.09 "Hg10 mi
7:50 am61 °FSunny.No wind55%30.09 "Hg10 mi
6:50 am57 °FSunny.1 mph59%30.09 "Hg10 mi
5:50 am57 °FClear.No wind59%30.07 "Hg10 mi
4:50 am59 °FClear.3 mph59%30.09 "Hg10 mi
3:50 am59 °FClear.1 mph59%30.09 "Hg10 mi
2:50 am57 °FClear.2 mph63%30.09 "Hg10 mi
Weather by CustomWeather, © 2020

See weather overview